WMT186 LATI-LIRN

Flight info

Callsign WMT186
Flight time N/A
Altitude 35000
Route DIRES DCT PAPIZ DCT TOPNO DCT DOGUS L995 EKTOL
Aircraft A321/M-SDE3FGHIRWY/LB1

Departure

Time 2026-04-30 21:48
Airport Tirana International Airport Mother Teresa (LATI)

Arrival

Time N/A
Airport Naples International Airport (LIRN)
Time Latitude Longitude Altitude Speed Heading
2026-04-30 21:06 41.41988 19.71514 119 ft 0 kts 264°
2026-04-30 21:32 41.41990 19.71535 119 ft 3 kts 262°
2026-04-30 21:32 41.41998 19.71564 120 ft 4 kts 213°
2026-04-30 21:32 41.42021 19.71571 120 ft 3 kts 175°
2026-04-30 21:33 41.42030 19.71570 120 ft 0 kts 174°
2026-04-30 21:38 41.42015 19.71572 119 ft 5 kts 174°
2026-04-30 21:38 41.41975 19.71578 119 ft 8 kts 174°
2026-04-30 21:38 41.41877 19.71591 123 ft 19 kts 174°
2026-04-30 21:39 41.41746 19.71607 123 ft 19 kts 174°
2026-04-30 21:39 41.41606 19.71627 125 ft 22 kts 174°
2026-04-30 21:39 41.41455 19.71648 124 ft 22 kts 174°
2026-04-30 21:39 41.41302 19.71669 129 ft 22 kts 174°
2026-04-30 21:40 41.41147 19.71689 128 ft 23 kts 174°
2026-04-30 21:40 41.40966 19.71713 127 ft 34 kts 173°
2026-04-30 21:40 41.40747 19.71761 132 ft 30 kts 173°
2026-04-30 21:40 41.40535 19.71790 132 ft 31 kts 174°
2026-04-30 21:41 41.40397 19.71820 132 ft 13 kts 154°
2026-04-30 21:41 41.40340 19.71872 133 ft 10 kts 144°
2026-04-30 21:41 41.40281 19.71929 133 ft 11 kts 144°
2026-04-30 21:41 41.40245 19.71983 133 ft 7 kts 118°
2026-04-30 21:42 41.40240 19.72000 133 ft 0 kts 103°
2026-04-30 21:43 41.40239 19.72011 133 ft 6 kts 97°
2026-04-30 21:43 41.40242 19.72081 133 ft 4 kts 84°
2026-04-30 21:43 41.40243 19.72082 133 ft 0 kts 84°
2026-04-30 21:45 41.40245 19.72114 133 ft 8 kts 85°
2026-04-30 21:45 41.40251 19.72197 132 ft 10 kts 78°
2026-04-30 21:46 41.40291 19.72215 132 ft 6 kts 358°
2026-04-30 21:46 41.40297 19.72214 132 ft 0 kts 353°
2026-04-30 21:47 41.40298 19.72213 132 ft 3 kts 353°
2026-04-30 21:47 41.40584 19.72175 133 ft 79 kts 354°
2026-04-30 21:48 41.41365 19.72071 127 ft 143 kts 354°
2026-04-30 21:48 41.42445 19.71930 577 ft 154 kts 355°
2026-04-30 21:48 41.43502 19.71788 1372 ft 152 kts 356°
2026-04-30 21:48 41.44575 19.71638 1858 ft 163 kts 357°
2026-04-30 21:49 41.45776 19.71484 2110 ft 184 kts 358°
2026-04-30 21:49 41.47108 19.71317 2287 ft 207 kts 358°
2026-04-30 21:49 41.48633 19.71127 2491 ft 232 kts 357°
2026-04-30 21:49 41.50323 19.70909 2912 ft 252 kts 356°
2026-04-30 21:50 41.52088 19.70672 3696 ft 255 kts 358°
2026-04-30 21:50 41.53866 19.70431 4556 ft 258 kts 358°
2026-04-30 21:50 41.55665 19.70188 5368 ft 262 kts 356°
2026-04-30 21:50 41.57481 19.69943 6218 ft 262 kts 357°
2026-04-30 21:51 41.59304 19.69698 7046 ft 263 kts 356°
2026-04-30 21:51 41.61109 19.69274 7862 ft 267 kts 340°
2026-04-30 21:51 41.62678 19.67924 8590 ft 274 kts 316°
2026-04-30 21:51 41.63701 19.65776 9442 ft 279 kts 293°
2026-04-30 21:52 41.64001 19.63200 10214 ft 287 kts 268°
2026-04-30 21:52 41.63452 19.60621 10904 ft 295 kts 243°
2026-04-30 21:52 41.62073 19.58550 11611 ft 306 kts 217°
2026-04-30 21:52 41.60092 19.57495 12325 ft 313 kts 189°
2026-04-30 21:53 41.57882 19.57540 12838 ft 327 kts 177°
2026-04-30 21:53 41.55539 19.57805 12978 ft 349 kts 176°
2026-04-30 21:53 41.53081 19.58113 13427 ft 359 kts 175°
2026-04-30 21:53 41.50571 19.58428 14026 ft 364 kts 176°
2026-04-30 21:54 41.48036 19.58736 14585 ft 368 kts 176°
2026-04-30 21:54 41.45472 19.59039 15177 ft 372 kts 176°